Погода в Витиме

Хотите узнать прогноз погоды в Витиме? Тогда Вам сюда: Погода в Витиме

Поиск расширенной информации на нашем сайте:

Полезная информация:

Новости сайта



02.01.2020
Опубликован Долгосрочный прогноз погоды по городам России и ближнего зарубежья на январь 2020 года.
Карты: Прогноз на январь и февраль 2020 года, Сравнение прогнозируемой аномалии приземной температуры воздуха на январь 2020 года по разным моделям.




Погода в Витиме - сегодня

Время (UTC), дата Ветер
(°,м/с) 
Видим.   Явления Облачность Т
(°С)
Тd
(°С)
f(%) Тe
(°С)
Pmin
(гПа)
dP
(гПа)
Po
(мм)
O2
(г/м3)
Тmin Tmax R s Состояние
почвы
09 23.11.20 210 (ЮЗ) 10 км  слаб. ливневой снег  10/8 600 м кучево-дожд., верхняя 
[Cb cap|Cs]
-4.1 -5.6 89 -6  1017.2  0.1  745  305           
12 23.11.20 200 (Ю) 10 км  слаб. ливневой снег  10/8 600 м кучево-дожд., верхняя 
[Cb cap|Cs]
-4.3 -5.5 91 -7  1018.2  746  306    -2.9     
15 23.11.20 210 (ЮЗ) 20000 м  слаб. ливневой снег  10/8 600 м кучево-дожд., верхняя 
[Cb cap|Cs]
-4.7 -6.7 86 -7  1019.4  1.2  746  307           
18 23.11.20 320 (СЗ) 10 км  слаб. ливневой снег  10/8 600 м кучево-дожд., верхняя 
[Cb cap|Cs]
-4.9 -7.7 81 -9  1021.5  748  308           
21 23.11.20 340 (С) 6{12}  20000 м  слаб. ливневой снег  10/6 600 м кучево-дожд., верхняя 
[Cb cap|Cs]
-7.6 -12.6 67 -13  1024.1  2.3  750  312           
00 24.11.20 320 (СЗ) 3{10}  10 км  слаб. ливневой снег  10/8 600 м кучево-дожд., верхняя 
[Cb cap|Cs]
-7.7 -10.8 78 -10  1026.4  2.3  751  313  -7.9    50  равномерный
сухой снег
100% 
15 24.11.20 220 (ЮЗ) 20000 м    9/0 средняя, верхняя 
[Ac lent|Ci fib]
-12.1 -14.8 80 -14  1036.4  0.6  758  321           
18 24.11.20 220 (ЮЗ) 20000 м  слаб. снег  10/0 средняя, верхняя 
[Ac lent|Cs]
-13.2 -15.9 80 -15  1037.3  0.8  759  323           
21 24.11.20 200 (Ю) 20000 м  слаб. снег  10/0 средняя, верхняя 
[Ac lent|Cs]
-13 -15 85 -16  1037.5  0.2  759  322           
00 25.11.20 220 (ЮЗ) 20000 м  слаб. снег  10/4 1000 м средняя, верхняя 
[Sc|Ac trans|Cs]
-12.9 -14.9 85 -15  1038.3  0.7  760  323  -13.4    0.4  48  равномерный
сухой снег
100% 
03 25.11.20 210 (ЮЗ) 10 км  слаб. снег  10/0 средняя, верхняя 
[Ac trans|Cs]
-12.4 -15.1 80 -16  1038.8  0.6  760  322           
06 25.11.20 210 (ЮЗ) 10 км  слаб. снег  10/0 средняя, верхняя 
[Ac trans|Cs]
-12.4 -15.1 80 -16  1039.3  0.5  760  322           
09 25.11.20 210 (ЮЗ) 10 км  слаб. снег  10/0 средняя, верхняя 
[Ac trans|Cs]
-12 -14.7 80 -15  1040.3  761  322           
12 25.11.20 200 (Ю) 20000 м  слаб. снег  10/0 средняя, верхняя 
[Ac lent|Cs]
-11.2 -14 80 -11  1040.6  0.4  761  321    -11.2  0.3     
15 25.11.20 190 (Ю) 20000 м  {снег}  10/3 600 м средняя, верхняя 
[Sc|Ac lent|Cs]
-11.8 -14.6 80 -12  1041.3  0.6  762  322           
18 25.11.20 180 (Ю) 20000 м  слаб. снег  10/3 600 м средняя, верхняя 
[Sc|Ac lent|Cs]
-12.3 -14.3 85 -12  1041.6  0.3  762  323           
21 25.11.20 170 (Ю) 20000 м  слаб. снег  10/3 600 м средняя, верхняя 
[Sc|Ac lent|Cs]
-12 -14 85 -14  1041.7  0.1  762  323           
00 26.11.20 170 (Ю) 20000 м  слаб. снег  10/4 600 м средняя, верхняя 
[Sc|Ac lent|Cs]
-11.5 -13.5 85 -13  1041.7  0.1  762  322  -12.3    0.3  46  равномерный
сухой снег
100% 
03 26.11.20 210 (ЮЗ) 10 км  слаб. снег  10/4 600 м средняя, верхняя 
[Sc|Ac lent|Cs]
-10.5 -12.5 85 -12  1041.8  0.2  762  321           
06 26.11.20 230 (ЮЗ) 20000 м  слаб. снег  10/4 600 м средняя, верхняя 
[Sc|Ac lent|Cs]
-10.1 -12.9 80 -13  1041.4  -0.4  762  320           
09 26.11.20 230 (ЮЗ) 20000 м  в посл. час снег  10/4 600 м средняя, верхняя 
[Sc|Ac lent|Cs]
-10.4 -13.2 80 -13  1014.9  0.5  763  321           
12 26.11.20 230 (ЮЗ) 20000 м  слаб. снег  10/0 средняя 
[As op]
-10.3 -13.9 75 -13  1042.3  0.4  763  321    -9.4  0.3     
15 26.11.20 210 (ЮЗ) 20000 м  слаб. снег  10/0 средняя 
[As op]
-10.6 -13.4 80 -15  1041.6  -0.7  762  321           
18 26.11.20 210 (ЮЗ) 10 км  слаб. снег  10/0 средняя 
[As op]
-11.2 -14 80 -14  1041.7  762  322           
21 26.11.20 210 (ЮЗ) 10 км  слаб. снег  10/0 средняя 
[As op]
-11 -13.9 79 -13  1040.6  -1.1  761  321           
Время (UTC), дата Ветер
(°,м/с) 
Видим.   Явления Облачность Т
(°С)
Тd
(°С)
f(%) Тe
(°С)
Pmin
(гПа)
dP
(гПа)
Po
(мм)
O2
(г/м3)
Тmin Tmax R s Состояние
почвы

Для получения пояснительной информации подведите курсор к названию столбца.

ПОГОДА в Витиме - архив

Всё, что Вы хотите узнать о погоде в Витиме - удобно и подробно!

Выберите нужную дату (начиная с 1 января 2019* года) и нажмите кнопку "Найти".
Будут отображены архивные сводки погоды по пункту Витим, начиная с указанной даты.


Отображать данные в формате CSV (для использования в таблицах Excel)


Внимание! Наш архив погоды предназначен исключительно для личного некоммерческого использования в познавательных целях. Если Вам необходимы официальные справки о состоянии погоды (для производственных, юридических, коммерческих и т.п. целей), обращайтесь в органы Росгидромета.

*Примечание: данная дата относится к архиву по метеостанциям СССР (Россия, СНГ, Балтия).
Архив по метеостанциям Зарубежной Европы и Азии (кроме Китая) хранится 10 дней, по другим регионам земного шара (Китай, Африка, Америка, Австралия, Океания) - 1 день.

Витим - район местоположения метеостанции


Название, широта, долгота, высота метеостанции:
Витим 59.4°ш. 112.6°д. 190 м над ур. моря [Российская Федерация]

Дополнительная информация

В oтличие oт бoльшинства пoгoдных сайтoв мы публикуем пoдрoбную метеoинфoрмацию в детальнoм прoфессиoнальнoм фoрмате.

Характеристики температуры и влажнoсти вoздуха измеряются на высoте 2 м в тени вдали oт зданий и деревьев.
Скoрoсть ветра измеряется на высoте 10 м (на урoвне рoста челoвека скoрoсть ветра ниже в 1.5-2 раза). Если метеoстанция нахoдится в гoрoде или в лесу, тo скoрoсть ветра занижена на 2-4 м/с пo сравнению с oткрытым местoм. Скoрoсть ветра над акватoриями крупных рек и oзёр, а также на вершинах хoлмoв на 2-5 м/с выше, чем в oбычных услoвиях.
Атмoсфернoе давление в разных тoчках местнoсти мoжет значительнo oтличаться oт давления на метеoстанции, в зависимoсти oт услoвий рельефа (при пoдъёме на 10 м давление пoнижается примернo на 1 мм рт.ст.).